TimeAKST,TemperatureF,Dew PointF,Humidity,Sea Level PressureIn,VisibilityMPH,Wind Direction,Wind SpeedMPH,Gust SpeedMPH,PrecipitationIn,Events,Conditions,WindDirDegrees,DateUTC
12:53 AM,32.0,28.9,88,29.65,10.0,Calm,Calm,-,N/A,,Overcast,0,2014-03-06 09:53:00
1:53 AM,30.9,27.0,85,29.64,10.0,West,4.6,-,N/A,,Mostly Cloudy,260,2014-03-06 10:53:00
2:53 AM,28.9,26.1,89,29.64,10.0,WNW,4.6,-,N/A,,Partly Cloudy,300,2014-03-06 11:53:00
3:53 AM,28.9,26.1,89,29.63,10.0,WNW,4.6,-,N/A,,Overcast,300,2014-03-06 12:53:00
4:53 AM,28.9,25.0,85,29.62,10.0,West,5.8,-,N/A,,Overcast,270,2014-03-06 13:53:00
5:53 AM,28.9,25.0,85,29.62,10.0,Calm,Calm,-,N/A,,Overcast,0,2014-03-06 14:53:00
6:53 AM,30.0,25.0,82,29.62,10.0,West,5.8,-,N/A,,Overcast,280,2014-03-06 15:53:00
7:53 AM,30.9,24.1,76,29.62,10.0,WNW,5.8,-,N/A,,Overcast,300,2014-03-06 16:53:00
8:53 AM,30.9,26.1,82,29.63,10.0,Calm,Calm,-,N/A,,Overcast,0,2014-03-06 17:53:00
9:53 AM,34.0,27.0,75,29.62,10.0,Calm,Calm,-,N/A,,Overcast,0,2014-03-06 18:53:00
10:53 AM,36.0,24.1,62,29.63,10.0,Calm,Calm,-,N/A,,Overcast,0,2014-03-06 19:53:00
11:53 AM,37.9,24.1,57,29.62,10.0,Calm,Calm,-,N/A,,Overcast,0,2014-03-06 20:53:00
12:53 PM,39.0,26.1,60,29.62,10.0,Calm,Calm,-,N/A,,Mostly Cloudy,0,2014-03-06 21:53:00
1:53 PM,39.9,28.0,63,29.61,10.0,East,4.6,-,N/A,,Mostly Cloudy,90,2014-03-06 22:53:00
2:53 PM,37.0,30.9,79,29.61,10.0,ESE,16.1,-,N/A,,Overcast,120,2014-03-06 23:53:00
3:53 PM,35.1,28.0,76,29.61,7.0,SE,4.6,-,N/A,Snow,Light Snow,140,2014-03-07 00:53:00
4:53 PM,37.9,30.0,73,29.59,10.0,Calm,Calm,-,N/A,,Mostly Cloudy,0,2014-03-07 01:53:00
5:53 PM,37.0,30.0,76,29.58,10.0,NE,15.0,-,N/A,,Mostly Cloudy,40,2014-03-07 02:53:00
6:53 PM,34.0,30.0,85,29.59,7.0,NNE,6.9,-,N/A,,Mostly Cloudy,20,2014-03-07 03:53:00
7:53 PM,34.0,28.9,82,29.59,9.0,Calm,Calm,-,N/A,Snow,Light Snow,0,2014-03-07 04:53:00
8:00 PM,35.6,30.2,81,29.59,3.0,ENE,17.3,20.7,N/A,Snow,Light Snow,60,2014-03-07 05:00:00
8:53 PM,34.0,30.0,85,29.60,10.0,NW,3.5,-,N/A,,Mostly Cloudy,320,2014-03-07 05:53:00
9:53 PM,35.1,30.0,82,29.60,10.0,NNE,8.1,-,N/A,,Overcast,20,2014-03-07 06:53:00
10:53 PM,35.1,30.0,82,29.60,10.0,NNE,4.6,-,N/A,,Overcast,30,2014-03-07 07:53:00
11:53 PM,35.1,30.9,85,29.59,5.0,NE,13.8,-,N/A,Snow,Light Snow,50,2014-03-07 08:53:00